Location: *
(51.5000°N, 0.1100°W)
Time: 05:55:16
(UTC+00:00)

IDEFIX/ARIANE 42P - Pass Details

Date: 11 August 2024
Orbit: 782 x 799 km, 98.5° (Epoch: 08 September)

Event Time Altitude Azimuth Distance (km) Brightness Sun altitude
Rises 03:49:39 0° 4° (N) 3,284 6.4 -7.6°
Reaches altitude 10° 03:52:51 10° 344° (NNW) 2,352 5.3 -7.2°
Maximum altitude 03:55:49 16° 308° (NW) 1,980 4.5 -6.8°
Drops below altitude 10° 03:58:48 10° 273° (W) 2,348 4.6 -6.4°
Enters shadow 04:00:29 - 260° (W) 2,796 4.8 -6.2°
